Cloud_Cover
99 100 100 84 89 92 99 51 91 20 5 16 8 65 56 100 100 100 28 4 52 33 20 16 28 17 24 99 99 58 69 71 76 22 32 7 5 5 5 5 13 5 5 5 3 3 5 2 4
14 100 96 58 5 52 96 100 100 92 16 73 49 5 5 7 77 79 81 20 5 5 5 18 80 35 6 33 49 24 19 8 15 5 5 4 4 3 2 1 5 0 1 3 0 0 0 0 0
2 5 5 5 5 12 49 76 100 99 100 87 8 5 4 4 3 14 11 5 5 7 5 6 5 17 59 81 54 8 14 5 2 1 0 0 0 0 0 0 0 0 0 0 0 0 0 0 0
5 3 2 2 5 72 41 89 100 39 97 66 42 68 98 89 5 12 26 5 15 5 4 5 20 21 12 15 43 0 0 0 0 0 0 0 0 0 0 0 0 0 0 0 0 0 0 0 0
74 15 3 0 0 14 52 72 100 63 97 100 100 100 88 7 3 0 4 0 3 0 0 29 7 16 4 0 0 0 0 0 0 0 0 0 0 0 0 0 0 0 0 0 0 0 0 0 0
100 100 99 10 5 5 9 34 100 100 100 100 100 86 37 15 14 7 0 1 4 2 4 0 6 0 1 0 0 0 0 0 0 0 0 0 0 0 0 0 0 0 0 0 0 0 0 0 0
97 87 95 92 100 89 49 4 94 55 100 100 100 94 40 6 28 22 5 4 1 2 0 0 0 0 0 0 0 0 0 0 0 0 0 0 0 0 0 5 0 0 0 0 0 0 0 0 0
5 14 98 100 100 100 100 100 20 69 100 100 100 100 99 72 77 10 5 2 0 0 0 0 0 0 0 0 0 0 0 0 0 0 0 0 4 5 4 0 0 0 0 2 2 0 0 0 0
5 88 25 45 100 100 87 99 100 100 100 100 100 99 96 94 78 53 2 3 0 0 0 0 0 0 0 0 0 0 0 0 0 0 0 0 0 0 0 3 1 4 5 5 3 5 32 17 1
4 4 31 12 46 92 61 100 96 5 10 44 76 6 4 4 0 1 28 34 13 0 0 0 0 0 0 0 0 0 2 1 0 1 0 0 0 0 0 0 0 1 2 2 11 2 1 0 0
10 38 52 5 16 5 94 76 8 5 35 64 68 5 5 64 15 50 99 16 0 0 0 0 0 2 2 24 39 55 74 62 78 6 68 15 0 0 0 0 3 18 5 4 13 5 5 0 0
90 21 6 43 60 17 9 4 1 0 4 0 5 5 3 5 84 85 91 54 100 73 41 100 99 83 95 91 55 91 5 30 5 5 4 5 42 23 9 16 11 16 5 5 21 50 89 5 5
30 31 26 86 18 86 69 8 60 5 4 5 1 0 2 37 4 6 98 85 96 100 100 100 100 42 5 9 28 14 56 71 12 13 5 11 13 44 100 37 12 6 20 4 52 5 10 29 44
5 5 32 5 21 5 2 36 5 5 47 73 5 5 88 1 7 12 10 75 89 100 100 100 100 100 100 94 99 100 100 100 99 55 96 100 100 100 38 25 5 5 13 99 79 31 65 18 81
29 100 22 5 5 5 5 32 5 3 23 10 26 4 5 0 1 7 58 81 100 100 100 100 100 100 100 100 100 100 100 77 57 58 14 21 11 33 69 62 60 46 67 100 98 100 100 100 100
100 88 93 98 20 5 5 5 5 5 1 5 5 5 0 0 3 0 23 100 100 100 100 100 100 100 100 100 100 100 100 85 100 97 100 85 100 100 100 100 87 98 100 100 100 100 100 100 100
12 15 36 43 5 4 38 24 5 5 5 18 5 2 5 5 5 24 43 100 100 100 100 100 100 100 100 100 100 100 100 100 100 100 100 100 100 100 100 100 100 100 100 100 100 100 100 100 100
100 100 81 18 43 5 39 19 5 5 33 7 5 4 4 5 7 20 51 100 100 100 100 100 100 100 100 100 100 100 100 100 100 100 100 100 100 87 56 100 100 100 100 100 100 100 100 100 100
60 100 98 26 15 5 5 9 83 38 5 9 5 5 1 0 1 7 11 56 65 100 100 100 100 100 100 100 100 100 100 100 100 100 96 100 86 98 48 28 89 95 100 100 100 100 100 100 98
89 96 73 100 65 9 86 22 100 100 100 90 20 7 5 5 31 80 100 34 74 99 100 97 100 100 100 100 100 100 100 77 8 99 99 73 100 97 71 32 78 36 22 71 32 88 100 94 78
91 95 99 100 84 8 75 100 100 95 98 66 46 24 5 5 6 47 88 32 14 5 47 65 82 100 96 88 79 28 54 23 64 86 95 7 0 5 0 5 4 15 93 56 8 35 97 62 25
100 92 82 100 33 21 19 6 97 100 70 55 65 18 58 58 25 87 91 79 47 29 12 37 22 49 18 31 10 3 4 38 16 16 3 2 4 5 5 50 95 92 95 50 23 51 100 100 98
100 98 74 97 99 10 19 3 4 2 1 7 5 5 5 5 5 36 68 99 100 52 5 13 9 0 1 3 0 0 0 4 0 0 28 28 9 76 12 83 100 100 100 100 100 69 100 100 100
71 100 98 34 24 51 53 2 1 0 0 70 68 39 88 34 86 97 100 97 91 52 10 50 34 6 5 4 0 0 3 1 2 5 5 4 66 47 97 28 83 66 98 100 21 42 70 84 100
7 36 19 30 73 100 89 0 0 0 3 19 100 83 95 90 100 100 99 51 46 12 2 0 1 1 7 0 0 0 0 5 77 25 5 38 58 2 0 11 0 0 3 2 0 3 2 4 63
36 94 61 24 2 0 4 0 0 8 56 100 100 100 100 100 94 82 99 18 10 10 15 1 4 0 0 0 0 3 11 100 94 7 90 54 5 0 0 0 0 0 0 0 84 8 5 14 70
59 84 49 16 5 5 5 0 95 50 98 95 100 100 100 100 37 23 0 0 13 3 0 0 0 0 0 0 1 6 47 100 32 13 6 5 5 0 0 0 0 2 94 95 99 5 2 7 75
0 1 23 63 5 5 7 55 6 47 26 5 91 100 100 69 30 31 5 4 5 5 3 0 0 0 0 3 5 59 100 99 83 8 5 7 1 0 0 0 2 6 4 6 5 59 5 0 5
8 3 5 25 9 14 97 80 5 17 5 27 53 99 100 100 23 5 5 5 6 8 0 0 0 0 3 5 5 90 100 100 29 5 5 0 1 1 0 0 0 2 5 84 55 85 17 7 68
44 1 15 76 69 78 53 5 7 6 78 100 100 16 5 5 5 5 6 54 5 7 0 0 0 3 5 24 51 100 100 82 5 5 5 4 4 4 0 0 0 5 5 5 36 100 75 8 93